GEFSMA_prec_meanprecacc_090.txt.gz
Total_Precipitation_Accumulation
0.86 0.90 0.86 0.90 0.89 1.11 1.36 1.43 1.38 1.53 1.55 1.41 1.21 1.04 0.96 0.86 0.72 0.79 0.89 0.83 0.75 0.83 1.04 1.07 0.96 0.89 0.87 0.74 0.69 0.70 0.73 0.70 0.66 0.54 0.41 0.38 0.44 0.50 0.46 0.38 0.34 0.29 0.29
1.30 1.40 1.30 1.25 1.15 1.21 1.39 1.54 1.57 1.94 1.85 1.79 1.45 1.25 1.18 1.08 0.95 0.88 0.93 1.01 0.87 0.76 0.82 0.99 1.08 1.02 0.98 0.88 0.78 0.73 0.70 0.68 0.61 0.45 0.36 0.33 0.39 0.49 0.49 0.44 0.36 0.29 0.22
1.54 1.66 1.66 1.54 1.55 1.51 1.61 1.63 1.80 2.02 1.79 1.73 1.50 1.40 1.28 1.16 1.03 1.01 1.05 1.10 1.00 0.86 0.70 0.76 0.93 1.00 1.05 1.07 1.02 0.89 0.73 0.63 0.58 0.45 0.34 0.32 0.37 0.44 0.45 0.47 0.43 0.32 0.22
1.85 1.93 1.75 1.64 1.86 1.91 1.92 1.97 2.03 2.06 1.93 1.87 1.69 1.41 1.25 1.19 0.92 0.91 0.91 0.88 0.89 0.76 0.75 0.86 0.92 0.94 1.04 1.12 1.16 1.12 0.96 0.77 0.66 0.56 0.43 0.37 0.41 0.45 0.42 0.42 0.42 0.34 0.24
1.80 1.93 1.76 1.80 2.03 2.11 2.08 1.91 2.17 2.15 2.08 1.96 1.64 1.36 1.12 0.95 0.80 0.69 0.66 0.58 0.63 0.61 0.61 0.73 0.80 0.79 0.97 1.17 1.22 1.23 1.20 1.06 0.88 0.76 0.69 0.60 0.53 0.48 0.45 0.43 0.40 0.35 0.28
1.87 2.00 1.87 1.95 2.11 2.18 2.10 2.10 2.21 2.24 2.09 2.01 1.60 1.28 1.06 0.80 0.69 0.61 0.50 0.51 0.50 0.43 0.41 0.53 0.67 0.61 0.82 1.01 1.04 1.16 1.25 1.21 1.07 0.97 0.94 0.89 0.82 0.70 0.56 0.51 0.50 0.46 0.37
1.93 2.10 1.98 2.10 2.12 1.98 1.97 2.13 2.25 2.10 1.88 2.02 1.77 1.20 0.86 0.67 0.63 0.55 0.50 0.55 0.50 0.45 0.42 0.53 0.62 0.61 0.61 0.69 0.73 0.84 1.11 1.30 1.23 1.07 0.99 0.98 1.05 1.06 0.79 0.71 0.71 0.65 0.55
1.82 1.85 1.88 1.87 1.90 1.93 1.93 1.98 2.14 1.96 1.64 1.82 1.76 1.47 0.93 0.71 0.61 0.50 0.52 0.49 0.45 0.49 0.52 0.57 0.70 0.76 0.68 0.73 0.69 0.61 0.89 1.23 1.31 1.29 1.14 1.06 1.14 1.20 1.01 1.00 0.91 0.77 0.67
1.53 1.54 1.57 1.71 1.92 2.01 1.92 1.93 1.96 1.84 1.55 1.57 1.70 1.74 1.24 0.86 0.65 0.41 0.41 0.45 0.53 0.61 0.61 0.75 0.80 0.81 0.83 0.92 0.98 0.88 0.73 0.83 1.04 1.32 1.37 1.23 1.12 1.08 1.20 1.30 1.18 0.94 0.74
1.39 1.36 1.39 1.44 1.50 1.59 1.60 1.53 1.65 1.75 1.68 1.51 1.61 1.64 1.50 1.30 1.09 0.68 0.51 0.50 0.62 0.67 0.72 0.71 0.68 0.69 0.88 1.08 1.18 1.10 0.96 0.83 0.80 1.09 1.36 1.41 1.22 1.08 1.22 1.42 1.57 1.33 0.91
1.26 1.26 1.21 1.19 1.16 1.22 1.34 1.37 1.46 1.50 1.54 1.51 1.52 1.57 1.55 1.50 1.46 1.24 0.86 0.82 0.80 0.67 0.69 0.69 0.65 0.68 0.86 1.00 1.07 1.03 1.09 0.96 0.90 0.88 0.97 1.13 1.16 1.12 1.14 1.36 1.75 1.83 1.50
1.02 1.01 1.04 1.06 1.04 1.09 1.18 1.26 1.32 1.28 1.36 1.40 1.43 1.49 1.53 1.51 1.55 1.55 1.23 1.08 0.97 0.81 0.80 0.73 0.68 0.68 0.83 0.91 0.84 0.93 0.87 0.79 0.77 0.81 0.81 0.91 0.92 0.95 1.03 1.25 1.63 1.94 1.99
0.73 0.76 0.77 0.85 0.90 0.99 1.02 1.03 1.11 1.20 1.33 1.39 1.40 1.46 1.49 1.46 1.44 1.50 1.44 1.20 1.08 0.95 0.96 0.88 0.74 0.71 0.69 0.86 0.79 0.68 0.54 0.45 0.45 0.49 0.49 0.57 0.65 0.73 0.84 0.98 1.21 1.49 1.77
0.55 0.61 0.70 0.82 0.90 0.95 0.95 0.98 0.98 1.04 1.18 1.31 1.40 1.55 1.47 1.38 1.40 1.46 1.54 1.49 1.28 1.12 1.13 0.98 0.84 0.73 0.70 0.74 0.69 0.54 0.42 0.33 0.30 0.29 0.27 0.28 0.34 0.42 0.54 0.69 0.86 0.98 1.13
0.53 0.57 0.65 0.76 0.89 1.00 1.03 1.01 1.02 1.11 1.25 1.33 1.46 1.54 1.46 1.44 1.46 1.46 1.56 1.63 1.54 1.33 1.16 1.09 0.96 0.80 0.72 0.63 0.54 0.53 0.50 0.40 0.29 0.23 0.19 0.18 0.21 0.25 0.31 0.44 0.58 0.71 0.80
0.49 0.54 0.62 0.69 0.71 0.77 0.83 0.83 0.92 1.04 1.18 1.24 1.26 1.31 1.36 1.41 1.54 1.50 1.55 1.63 1.66 1.52 1.21 1.16 1.08 0.87 0.87 0.61 0.52 0.51 0.45 0.38 0.28 0.22 0.17 0.17 0.19 0.22 0.25 0.30 0.39 0.51 0.62
0.44 0.48 0.54 0.54 0.55 0.55 0.58 0.63 0.74 0.88 0.95 0.96 0.94 0.98 1.02 1.11 1.24 1.29 1.36 1.43 1.54 1.57 1.27 1.25 1.39 1.28 1.22 0.94 0.72 0.61 0.42 0.33 0.30 0.25 0.19 0.16 0.15 0.19 0.24 0.26 0.28 0.33 0.42
0.38 0.41 0.43 0.45 0.44 0.46 0.53 0.59 0.66 0.74 0.81 0.80 0.79 0.80 0.77 0.86 0.99 1.06 1.15 1.25 1.41 1.59 1.43 1.33 1.50 1.56 1.46 1.24 1.06 0.84 0.57 0.39 0.37 0.33 0.22 0.17 0.15 0.16 0.22 0.25 0.25 0.26 0.31
0.31 0.34 0.39 0.42 0.46 0.53 0.63 0.73 0.79 0.76 0.68 0.62 0.57 0.55 0.56 0.63 0.73 0.85 0.98 1.05 1.16 1.48 1.53 1.40 1.43 1.67 1.66 1.47 1.37 1.08 0.85 0.74 0.50 0.41 0.27 0.20 0.19 0.19 0.21 0.26 0.27 0.27 0.27
0.34 0.40 0.46 0.52 0.60 0.63 0.66 0.70 0.71 0.73 0.68 0.58 0.46 0.39 0.39 0.47 0.59 0.69 0.79 0.89 1.00 1.15 1.33 1.41 1.42 1.61 1.68 1.56 1.60 1.35 1.10 0.92 0.73 0.55 0.44 0.29 0.23 0.25 0.27 0.27 0.29 0.32 0.34
0.29 0.42 0.51 0.56 0.65 0.62 0.57 0.57 0.57 0.52 0.52 0.51 0.45 0.35 0.32 0.35 0.43 0.53 0.59 0.69 0.80 0.93 1.05 1.21 1.33 1.46 1.63 1.58 1.45 1.40 1.23 1.05 0.94 0.86 0.84 0.57 0.33 0.28 0.29 0.31 0.34 0.40 0.47
0.27 0.35 0.39 0.44 0.50 0.45 0.39 0.37 0.38 0.40 0.42 0.43 0.42 0.38 0.32 0.30 0.31 0.36 0.43 0.49 0.55 0.61 0.76 0.96 1.09 1.21 1.36 1.50 1.46 1.48 1.38 1.15 1.03 0.97 1.02 1.07 0.80 0.60 0.48 0.33 0.31 0.38 0.50
0.32 0.37 0.35 0.36 0.38 0.42 0.35 0.29 0.26 0.29 0.35 0.37 0.38 0.35 0.27 0.24 0.25 0.23 0.25 0.31 0.39 0.40 0.45 0.63 0.78 0.82 0.91 1.08 1.31 1.47 1.53 1.36 1.21 1.19 1.16 1.29 1.38 1.17 0.79 0.53 0.41 0.35 0.42
0.44 0.45 0.40 0.38 0.39 0.38 0.33 0.26 0.23 0.24 0.30 0.34 0.35 0.32 0.27 0.23 0.25 0.25 0.27 0.27 0.25 0.25 0.27 0.31 0.40 0.57 0.68 0.80 1.01 1.20 1.43 1.58 1.45 1.39 1.33 1.44 1.58 1.81 1.43 0.93 0.70 0.52 0.50
0.49 0.49 0.44 0.42 0.43 0.40 0.33 0.25 0.25 0.31 0.36 0.36 0.37 0.34 0.30 0.25 0.24 0.22 0.27 0.28 0.25 0.22 0.22 0.26 0.31 0.43 0.60 0.71 0.84 1.03 1.21 1.30 1.32 1.40 1.43 1.53 1.61 1.77 2.10 1.74 1.10 0.71 0.53
0.52 0.47 0.46 0.49 0.50 0.49 0.39 0.28 0.26 0.31 0.38 0.41 0.47 0.45 0.34 0.28 0.26 0.23 0.23 0.24 0.23 0.21 0.20 0.21 0.26 0.33 0.40 0.53 0.67 0.76 0.87 0.96 0.98 1.06 1.04 1.03 1.14 1.30 1.79 2.15 1.84 1.24 0.82

GEFSMA_prec_meanprecacc_096.txt.gz
Total_Precipitation_Accumulation
1.01 1.06 1.03 1.07 1.04 1.25 1.50 1.58 1.54 1.70 1.72 1.58 1.37 1.19 1.09 0.96 0.81 0.85 0.95 0.89 0.79 0.88 1.10 1.17 1.09 1.04 0.98 0.83 0.75 0.75 0.76 0.72 0.68 0.54 0.42 0.39 0.45 0.50 0.46 0.39 0.34 0.30 0.30
1.50 1.57 1.45 1.39 1.30 1.36 1.54 1.69 1.74 2.13 2.02 1.94 1.58 1.39 1.30 1.21 1.06 0.97 1.00 1.08 0.92 0.81 0.88 1.07 1.20 1.15 1.10 0.99 0.87 0.79 0.74 0.71 0.63 0.47 0.37 0.33 0.40 0.50 0.50 0.45 0.37 0.30 0.23
1.77 1.83 1.80 1.67 1.67 1.65 1.74 1.74 1.92 2.19 1.96 1.87 1.60 1.51 1.39 1.26 1.13 1.12 1.17 1.21 1.09 0.92 0.76 0.83 1.02 1.12 1.18 1.20 1.14 0.98 0.78 0.66 0.60 0.47 0.36 0.33 0.37 0.45 0.46 0.48 0.44 0.33 0.22
1.96 2.04 1.84 1.73 1.98 2.02 2.03 2.06 2.12 2.15 2.05 2.00 1.79 1.50 1.34 1.28 1.01 1.02 1.03 0.97 0.99 0.84 0.82 0.91 0.99 1.05 1.18 1.27 1.30 1.24 1.05 0.82 0.69 0.58 0.46 0.39 0.43 0.47 0.43 0.43 0.42 0.34 0.25
1.87 2.00 1.81 1.86 2.10 2.17 2.14 1.97 2.24 2.21 2.14 2.03 1.70 1.42 1.19 1.03 0.90 0.80 0.77 0.67 0.71 0.68 0.68 0.79 0.86 0.88 1.09 1.32 1.37 1.39 1.34 1.16 0.95 0.81 0.73 0.62 0.55 0.50 0.46 0.44 0.41 0.36 0.28
1.91 2.05 1.91 1.99 2.15 2.22 2.14 2.15 2.25 2.28 2.13 2.06 1.64 1.31 1.10 0.85 0.77 0.70 0.59 0.60 0.58 0.51 0.49 0.61 0.76 0.68 0.90 1.13 1.19 1.33 1.43 1.36 1.18 1.05 0.99 0.92 0.85 0.72 0.57 0.52 0.52 0.47 0.38
1.97 2.14 2.03 2.15 2.17 2.02 2.01 2.17 2.29 2.14 1.93 2.08 1.83 1.25 0.89 0.71 0.68 0.63 0.59 0.64 0.60 0.54 0.53 0.65 0.73 0.71 0.69 0.78 0.82 0.96 1.26 1.43 1.34 1.16 1.05 1.02 1.08 1.08 0.80 0.72 0.71 0.65 0.56
1.83 1.87 1.90 1.89 1.93 1.97 1.96 2.02 2.18 1.99 1.68 1.87 1.82 1.53 0.98 0.76 0.64 0.54 0.58 0.58 0.54 0.60 0.62 0.68 0.82 0.89 0.81 0.85 0.77 0.68 0.99 1.36 1.45 1.40 1.22 1.12 1.18 1.23 1.02 1.01 0.92 0.77 0.68
1.53 1.55 1.58 1.71 1.93 2.02 1.95 1.98 2.01 1.88 1.58 1.60 1.75 1.79 1.30 0.92 0.69 0.44 0.45 0.51 0.61 0.72 0.72 0.85 0.91 0.94 0.97 1.07 1.09 0.95 0.80 0.93 1.16 1.46 1.49 1.32 1.18 1.11 1.22 1.31 1.20 0.95 0.75
1.40 1.37 1.39 1.44 1.51 1.60 1.62 1.56 1.68 1.78 1.72 1.54 1.65 1.69 1.54 1.36 1.16 0.73 0.54 0.54 0.67 0.73 0.81 0.81 0.78 0.80 1.00 1.22 1.30 1.17 1.01 0.88 0.88 1.22 1.49 1.53 1.30 1.13 1.24 1.44 1.59 1.35 0.92
1.27 1.26 1.21 1.20 1.17 1.23 1.35 1.38 1.48 1.53 1.57 1.54 1.57 1.64 1.60 1.56 1.51 1.30 0.91 0.86 0.84 0.71 0.75 0.79 0.77 0.80 0.98 1.15 1.20 1.11 1.14 1.02 0.95 0.97 1.08 1.24 1.26 1.20 1.19 1.40 1.79 1.87 1.53
1.03 1.01 1.05 1.06 1.05 1.10 1.19 1.27 1.34 1.30 1.38 1.44 1.47 1.56 1.61 1.59 1.61 1.61 1.28 1.12 1.03 0.86 0.86 0.81 0.78 0.81 0.97 1.06 0.95 1.01 0.95 0.84 0.82 0.86 0.88 0.98 1.00 1.03 1.10 1.30 1.67 1.99 2.05
0.74 0.76 0.77 0.86 0.90 0.99 1.03 1.03 1.11 1.21 1.34 1.41 1.42 1.49 1.53 1.51 1.50 1.56 1.49 1.25 1.13 1.00 1.01 0.94 0.82 0.82 0.81 1.02 0.94 0.79 0.63 0.53 0.51 0.54 0.54 0.61 0.71 0.78 0.89 1.03 1.26 1.55 1.84
0.56 0.61 0.70 0.82 0.91 0.95 0.96 0.98 0.98 1.05 1.19 1.32 1.41 1.57 1.49 1.40 1.43 1.50 1.58 1.53 1.33 1.18 1.18 1.03 0.91 0.82 0.81 0.89 0.84 0.68 0.55 0.43 0.38 0.35 0.32 0.33 0.37 0.44 0.56 0.72 0.88 1.02 1.17
0.54 0.57 0.65 0.76 0.89 1.00 1.03 1.01 1.02 1.11 1.25 1.33 1.47 1.56 1.48 1.45 1.47 1.48 1.59 1.66 1.59 1.40 1.23 1.14 1.02 0.87 0.81 0.76 0.71 0.70 0.65 0.54 0.40 0.31 0.26 0.24 0.26 0.28 0.33 0.45 0.59 0.72 0.81
0.49 0.54 0.62 0.69 0.72 0.78 0.84 0.84 0.93 1.05 1.19 1.26 1.27 1.33 1.38 1.42 1.55 1.52 1.58 1.66 1.69 1.59 1.30 1.23 1.14 0.92 0.94 0.70 0.66 0.66 0.62 0.53 0.39 0.31 0.27 0.25 0.25 0.26 0.28 0.31 0.40 0.52 0.63
0.44 0.48 0.54 0.54 0.55 0.56 0.58 0.63 0.75 0.89 0.96 0.97 0.95 0.99 1.03 1.12 1.25 1.30 1.39 1.46 1.58 1.62 1.35 1.33 1.45 1.33 1.28 1.03 0.83 0.74 0.56 0.48 0.42 0.35 0.29 0.24 0.23 0.25 0.29 0.30 0.30 0.35 0.43
0.38 0.41 0.43 0.45 0.44 0.46 0.53 0.59 0.67 0.74 0.82 0.81 0.80 0.81 0.79 0.87 1.01 1.08 1.17 1.29 1.46 1.64 1.50 1.43 1.59 1.63 1.54 1.33 1.17 0.96 0.69 0.51 0.50 0.45 0.33 0.27 0.23 0.24 0.29 0.31 0.29 0.29 0.33
0.31 0.34 0.39 0.42 0.46 0.53 0.63 0.74 0.80 0.77 0.69 0.63 0.58 0.57 0.58 0.64 0.75 0.87 1.00 1.08 1.21 1.54 1.60 1.47 1.53 1.77 1.76 1.57 1.50 1.22 1.00 0.87 0.61 0.54 0.40 0.30 0.28 0.27 0.29 0.34 0.33 0.31 0.30
0.34 0.40 0.46 0.52 0.60 0.63 0.66 0.70 0.72 0.74 0.69 0.58 0.47 0.41 0.40 0.49 0.61 0.71 0.81 0.91 1.04 1.21 1.41 1.49 1.51 1.72 1.81 1.70 1.76 1.53 1.28 1.09 0.87 0.65 0.54 0.37 0.31 0.33 0.34 0.35 0.37 0.38 0.38
0.29 0.42 0.51 0.56 0.65 0.63 0.57 0.57 0.57 0.52 0.53 0.53 0.47 0.37 0.33 0.37 0.44 0.55 0.61 0.71 0.85 0.99 1.12 1.29 1.42 1.58 1.79 1.77 1.64 1.60 1.43 1.26 1.14 1.00 0.95 0.66 0.40 0.34 0.35 0.37 0.41 0.47 0.52
0.27 0.35 0.39 0.44 0.50 0.45 0.39 0.37 0.38 0.40 0.43 0.45 0.45 0.40 0.35 0.31 0.32 0.37 0.43 0.50 0.58 0.67 0.84 1.04 1.18 1.32 1.52 1.68 1.66 1.69 1.62 1.38 1.24 1.14 1.17 1.18 0.88 0.66 0.54 0.38 0.36 0.44 0.55
0.32 0.37 0.36 0.36 0.39 0.42 0.35 0.29 0.26 0.29 0.36 0.39 0.41 0.39 0.30 0.25 0.26 0.25 0.27 0.33 0.41 0.43 0.50 0.71 0.87 0.92 1.05 1.27 1.53 1.69 1.77 1.63 1.45 1.38 1.32 1.44 1.50 1.26 0.85 0.59 0.47 0.39 0.47
0.44 0.46 0.40 0.39 0.40 0.39 0.33 0.26 0.23 0.24 0.30 0.35 0.38 0.35 0.32 0.27 0.27 0.28 0.31 0.31 0.29 0.29 0.30 0.36 0.47 0.65 0.79 0.95 1.22 1.43 1.68 1.89 1.78 1.68 1.56 1.62 1.73 1.93 1.52 1.00 0.76 0.57 0.53
0.49 0.49 0.44 0.42 0.43 0.41 0.33 0.25 0.25 0.31 0.36 0.37 0.39 0.36 0.33 0.29 0.27 0.24 0.30 0.33 0.30 0.27 0.26 0.31 0.37 0.51 0.69 0.80 1.00 1.26 1.49 1.62 1.72 1.78 1.73 1.74 1.76 1.89 2.21 1.82 1.16 0.76 0.57
0.52 0.48 0.46 0.49 0.51 0.50 0.40 0.28 0.26 0.31 0.39 0.42 0.50 0.48 0.36 0.29 0.28 0.24 0.26 0.30 0.29 0.26 0.26 0.26 0.31 0.38 0.48 0.61 0.77 0.93 1.11 1.26 1.31 1.45 1.40 1.29 1.32 1.43 1.90 2.24 1.90 1.30 0.86

GEFSMA_prec_meanprecacc_102.txt.gz
Total_Precipitation_Accumulation
1.23 1.26 1.23 1.27 1.22 1.42 1.69 1.77 1.71 1.87 1.89 1.72 1.49 1.33 1.21 1.06 0.86 0.89 1.00 0.96 0.87 0.95 1.14 1.20 1.12 1.07 1.02 0.88 0.79 0.77 0.78 0.73 0.69 0.56 0.43 0.39 0.46 0.51 0.47 0.39 0.34 0.30 0.30
1.72 1.76 1.62 1.56 1.47 1.51 1.70 1.85 1.90 2.30 2.18 2.10 1.70 1.50 1.43 1.33 1.15 1.02 1.07 1.19 0.99 0.86 0.92 1.10 1.23 1.18 1.13 1.04 0.93 0.83 0.77 0.73 0.64 0.48 0.38 0.34 0.41 0.51 0.50 0.45 0.37 0.30 0.23
1.91 1.98 1.94 1.80 1.78 1.76 1.86 1.88 2.07 2.33 2.08 1.98 1.71 1.61 1.50 1.37 1.23 1.22 1.28 1.36 1.22 1.00 0.81 0.87 1.06 1.16 1.22 1.23 1.19 1.03 0.82 0.69 0.62 0.48 0.37 0.33 0.38 0.46 0.47 0.48 0.45 0.33 0.22
2.03 2.11 1.92 1.82 2.07 2.11 2.13 2.17 2.24 2.28 2.18 2.12 1.91 1.60 1.47 1.42 1.11 1.11 1.12 1.08 1.11 0.93 0.91 0.98 1.04 1.09 1.22 1.32 1.34 1.29 1.11 0.86 0.71 0.60 0.47 0.39 0.44 0.47 0.43 0.43 0.43 0.34 0.25
1.90 2.03 1.86 1.92 2.16 2.23 2.20 2.04 2.33 2.30 2.25 2.15 1.81 1.53 1.29 1.14 1.01 0.88 0.83 0.74 0.80 0.77 0.78 0.89 0.94 0.93 1.12 1.36 1.42 1.44 1.40 1.22 0.98 0.83 0.75 0.63 0.56 0.51 0.46 0.45 0.42 0.36 0.28
1.93 2.06 1.94 2.02 2.19 2.26 2.19 2.20 2.31 2.33 2.19 2.13 1.69 1.38 1.17 0.93 0.89 0.81 0.66 0.67 0.65 0.58 0.56 0.71 0.90 0.74 0.94 1.16 1.23 1.40 1.51 1.43 1.24 1.08 1.02 0.94 0.86 0.73 0.58 0.53 0.52 0.47 0.38
1.98 2.16 2.05 2.17 2.19 2.05 2.05 2.21 2.34 2.19 1.98 2.15 1.90 1.32 0.95 0.76 0.77 0.71 0.68 0.73 0.66 0.61 0.62 0.77 0.87 0.82 0.78 0.83 0.85 1.01 1.34 1.52 1.41 1.22 1.09 1.04 1.10 1.09 0.81 0.72 0.72 0.66 0.56
1.85 1.88 1.92 1.91 1.95 1.99 1.99 2.06 2.23 2.05 1.74 1.95 1.91 1.62 1.05 0.81 0.71 0.62 0.68 0.69 0.65 0.70 0.73 0.80 0.98 1.07 0.96 1.00 0.83 0.71 1.03 1.44 1.54 1.48 1.28 1.16 1.21 1.25 1.04 1.02 0.92 0.78 0.68
1.54 1.56 1.59 1.72 1.94 2.04 1.97 2.01 2.04 1.92 1.63 1.65 1.80 1.86 1.36 0.98 0.76 0.51 0.54 0.62 0.73 0.85 0.83 0.97 1.05 1.11 1.14 1.25 1.23 1.02 0.85 0.96 1.23 1.54 1.57 1.39 1.23 1.15 1.24 1.33 1.21 0.95 0.75
1.40 1.37 1.40 1.45 1.53 1.61 1.64 1.57 1.70 1.81 1.76 1.58 1.69 1.74 1.59 1.41 1.21 0.77 0.60 0.63 0.78 0.84 0.92 0.93 0.90 0.93 1.16 1.42 1.48 1.28 1.08 0.92 0.92 1.29 1.58 1.61 1.38 1.19 1.28 1.47 1.62 1.36 0.92
1.27 1.27 1.22 1.20 1.17 1.23 1.36 1.39 1.50 1.54 1.59 1.57 1.60 1.67 1.64 1.61 1.56 1.35 0.96 0.91 0.90 0.78 0.83 0.88 0.87 0.89 1.10 1.31 1.39 1.28 1.27 1.08 1.00 1.02 1.16 1.33 1.34 1.27 1.24 1.44 1.82 1.89 1.54
1.03 1.02 1.05 1.07 1.05 1.10 1.20 1.29 1.36 1.32 1.41 1.47 1.50 1.58 1.64 1.62 1.65 1.66 1.33 1.17 1.07 0.91 0.92 0.87 0.85 0.88 1.05 1.17 1.07 1.14 1.10 0.96 0.90 0.92 0.95 1.06 1.08 1.11 1.17 1.36 1.72 2.04 2.08
0.74 0.77 0.77 0.86 0.91 1.00 1.04 1.04 1.13 1.23 1.36 1.44 1.46 1.52 1.56 1.54 1.54 1.60 1.53 1.29 1.17 1.05 1.07 1.00 0.89 0.89 0.88 1.11 1.04 0.91 0.76 0.66 0.62 0.63 0.62 0.69 0.79 0.86 0.95 1.09 1.32 1.61 1.88
0.56 0.61 0.70 0.83 0.92 0.96 0.96 0.99 0.99 1.06 1.21 1.34 1.43 1.60 1.51 1.42 1.45 1.52 1.61 1.57 1.36 1.21 1.22 1.08 0.96 0.89 0.89 0.98 0.93 0.77 0.65 0.54 0.50 0.46 0.42 0.41 0.44 0.51 0.62 0.77 0.93 1.07 1.22
0.54 0.57 0.66 0.77 0.90 1.01 1.04 1.03 1.03 1.13 1.27 1.35 1.48 1.58 1.50 1.47 1.49 1.50 1.60 1.69 1.62 1.43 1.25 1.17 1.07 0.93 0.89 0.85 0.80 0.78 0.75 0.63 0.50 0.42 0.35 0.33 0.33 0.34 0.39 0.49 0.63 0.76 0.84
0.50 0.55 0.62 0.69 0.72 0.79 0.85 0.86 0.94 1.06 1.22 1.28 1.29 1.35 1.41 1.44 1.57 1.53 1.60 1.67 1.71 1.61 1.32 1.26 1.17 0.97 1.01 0.77 0.73 0.74 0.73 0.63 0.48 0.39 0.35 0.32 0.34 0.35 0.35 0.37 0.44 0.55 0.66
0.44 0.49 0.54 0.55 0.56 0.56 0.59 0.65 0.76 0.90 0.98 0.99 0.97 1.01 1.06 1.15 1.29 1.33 1.41 1.48 1.60 1.64 1.37 1.35 1.48 1.35 1.31 1.08 0.90 0.82 0.67 0.61 0.54 0.44 0.36 0.31 0.30 0.34 0.37 0.37 0.36 0.39 0.46
0.38 0.42 0.44 0.45 0.45 0.47 0.54 0.60 0.68 0.75 0.83 0.83 0.82 0.84 0.81 0.90 1.06 1.12 1.21 1.31 1.48 1.67 1.52 1.45 1.60 1.65 1.56 1.36 1.22 1.04 0.78 0.62 0.64 0.59 0.44 0.36 0.31 0.31 0.37 0.39 0.37 0.35 0.37
0.32 0.35 0.39 0.43 0.47 0.54 0.64 0.75 0.81 0.79 0.71 0.64 0.60 0.59 0.59 0.67 0.79 0.91 1.05 1.12 1.24 1.56 1.62 1.50 1.55 1.79 1.78 1.61 1.55 1.29 1.10 0.99 0.74 0.68 0.54 0.43 0.38 0.36 0.38 0.43 0.42 0.38 0.35
0.34 0.41 0.46 0.53 0.61 0.64 0.67 0.72 0.73 0.76 0.71 0.61 0.50 0.43 0.42 0.51 0.64 0.75 0.85 0.96 1.08 1.24 1.44 1.51 1.52 1.74 1.84 1.74 1.83 1.63 1.39 1.22 1.00 0.79 0.69 0.50 0.43 0.44 0.43 0.44 0.46 0.46 0.44
0.29 0.43 0.51 0.57 0.66 0.63 0.58 0.58 0.58 0.54 0.54 0.55 0.49 0.40 0.35 0.38 0.46 0.57 0.63 0.75 0.89 1.04 1.16 1.33 1.45 1.62 1.84 1.83 1.71 1.69 1.53 1.37 1.28 1.16 1.11 0.78 0.51 0.43 0.43 0.44 0.48 0.54 0.60
0.28 0.36 0.39 0.45 0.51 0.45 0.39 0.37 0.38 0.40 0.43 0.46 0.47 0.43 0.37 0.33 0.33 0.37 0.43 0.51 0.59 0.70 0.87 1.08 1.22 1.36 1.59 1.78 1.76 1.79 1.71 1.48 1.37 1.29 1.34 1.36 1.02 0.76 0.60 0.42 0.40 0.48 0.61
0.33 0.38 0.37 0.37 0.40 0.44 0.35 0.29 0.26 0.29 0.36 0.40 0.43 0.42 0.32 0.27 0.29 0.29 0.30 0.34 0.42 0.43 0.51 0.73 0.89 0.95 1.11 1.39 1.68 1.82 1.88 1.72 1.54 1.52 1.50 1.64 1.71 1.44 0.96 0.66 0.54 0.45 0.53
0.45 0.47 0.41 0.40 0.41 0.40 0.33 0.26 0.23 0.24 0.31 0.37 0.41 0.39 0.36 0.31 0.31 0.33 0.36 0.37 0.33 0.32 0.32 0.37 0.48 0.67 0.82 1.04 1.39 1.60 1.83 2.01 1.90 1.82 1.73 1.82 1.93 2.13 1.68 1.11 0.87 0.65 0.61
0.50 0.50 0.45 0.43 0.45 0.43 0.34 0.25 0.25 0.31 0.37 0.39 0.42 0.39 0.37 0.36 0.31 0.26 0.33 0.37 0.33 0.31 0.28 0.31 0.38 0.52 0.71 0.84 1.12 1.44 1.67 1.78 1.85 1.93 1.89 1.94 1.95 2.08 2.40 1.98 1.30 0.87 0.66
0.53 0.49 0.47 0.51 0.53 0.52 0.41 0.28 0.26 0.32 0.41 0.44 0.53 0.52 0.39 0.31 0.30 0.25 0.27 0.33 0.32 0.30 0.31 0.30 0.34 0.40 0.50 0.64 0.84 1.07 1.25 1.41 1.46 1.60 1.55 1.47 1.52 1.62 2.09 2.41 2.07 1.42 0.96

GEFSMA_prec_meanprecacc_108.txt.gz
Total_Precipitation_Accumulation
1.31 1.32 1.28 1.33 1.30 1.51 1.78 1.85 1.81 1.97 1.98 1.80 1.54 1.37 1.26 1.13 0.96 1.00 1.12 1.10 1.01 1.07 1.24 1.28 1.18 1.11 1.05 0.90 0.80 0.78 0.78 0.73 0.70 0.56 0.43 0.40 0.47 0.51 0.47 0.39 0.34 0.30 0.30
1.78 1.81 1.67 1.61 1.52 1.57 1.77 1.92 1.98 2.40 2.27 2.15 1.74 1.54 1.47 1.40 1.28 1.18 1.21 1.31 1.12 0.98 1.02 1.20 1.31 1.24 1.18 1.08 0.94 0.84 0.77 0.73 0.65 0.48 0.38 0.34 0.41 0.51 0.50 0.45 0.37 0.30 0.23
1.94 2.00 1.97 1.84 1.83 1.81 1.92 1.93 2.13 2.39 2.13 2.02 1.74 1.64 1.54 1.41 1.30 1.34 1.43 1.50 1.35 1.14 0.95 0.99 1.16 1.25 1.28 1.28 1.21 1.05 0.84 0.70 0.63 0.48 0.37 0.34 0.38 0.46 0.47 0.48 0.45 0.33 0.22
2.04 2.12 1.94 1.84 2.09 2.14 2.17 2.22 2.30 2.32 2.22 2.14 1.94 1.63 1.50 1.45 1.16 1.19 1.23 1.20 1.23 1.05 1.04 1.12 1.17 1.19 1.30 1.38 1.38 1.32 1.13 0.88 0.72 0.61 0.47 0.40 0.44 0.47 0.43 0.43 0.43 0.34 0.25
1.92 2.05 1.87 1.93 2.17 2.25 2.22 2.07 2.36 2.34 2.28 2.18 1.84 1.55 1.32 1.16 1.05 0.94 0.91 0.84 0.91 0.88 0.88 1.00 1.08 1.05 1.22 1.45 1.50 1.51 1.46 1.26 1.01 0.84 0.76 0.63 0.56 0.51 0.46 0.45 0.42 0.36 0.28
1.95 2.08 1.95 2.03 2.20 2.27 2.21 2.22 2.33 2.36 2.22 2.17 1.73 1.40 1.19 0.95 0.91 0.85 0.72 0.73 0.74 0.68 0.64 0.79 1.00 0.85 1.07 1.28 1.34 1.51 1.60 1.52 1.30 1.11 1.03 0.95 0.87 0.73 0.58 0.53 0.52 0.47 0.38
2.00 2.18 2.06 2.20 2.22 2.07 2.06 2.23 2.35 2.21 2.01 2.19 1.95 1.35 0.97 0.78 0.79 0.74 0.73 0.79 0.74 0.68 0.71 0.87 0.96 0.90 0.86 0.95 0.99 1.14 1.47 1.64 1.51 1.29 1.12 1.06 1.11 1.10 0.81 0.72 0.72 0.66 0.56
1.87 1.89 1.93 1.92 1.97 2.00 2.00 2.07 2.24 2.06 1.74 1.97 1.94 1.64 1.07 0.82 0.72 0.64 0.74 0.76 0.74 0.82 0.83 0.90 1.08 1.18 1.07 1.11 0.93 0.86 1.20 1.60 1.68 1.59 1.37 1.21 1.24 1.27 1.05 1.02 0.92 0.78 0.68
1.55 1.57 1.59 1.73 1.95 2.04 1.98 2.02 2.05 1.93 1.63 1.66 1.82 1.87 1.37 0.98 0.76 0.52 0.58 0.70 0.85 0.99 0.96 1.09 1.17 1.23 1.28 1.39 1.34 1.18 1.04 1.15 1.41 1.71 1.70 1.49 1.30 1.19 1.27 1.34 1.22 0.95 0.75
1.41 1.38 1.40 1.46 1.53 1.62 1.64 1.58 1.70 1.81 1.76 1.58 1.69 1.74 1.60 1.42 1.21 0.78 0.60 0.65 0.83 0.94 1.02 1.01 1.00 1.05 1.29 1.57 1.64 1.45 1.25 1.08 1.09 1.49 1.77 1.76 1.51 1.29 1.35 1.51 1.64 1.37 0.92
1.27 1.27 1.22 1.20 1.17 1.23 1.36 1.39 1.50 1.54 1.59 1.57 1.60 1.67 1.65 1.61 1.57 1.35 0.96 0.91 0.91 0.81 0.88 0.94 0.95 0.97 1.21 1.45 1.54 1.45 1.45 1.25 1.16 1.21 1.38 1.54 1.53 1.43 1.37 1.52 1.89 1.93 1.56
1.03 1.02 1.05 1.07 1.05 1.10 1.20 1.29 1.36 1.32 1.41 1.47 1.51 1.58 1.64 1.62 1.65 1.66 1.33 1.17 1.07 0.92 0.94 0.90 0.89 0.94 1.12 1.26 1.20 1.30 1.29 1.13 1.06 1.10 1.14 1.28 1.30 1.31 1.34 1.51 1.84 2.12 2.12
0.74 0.77 0.77 0.86 0.91 1.00 1.04 1.04 1.13 1.23 1.37 1.44 1.46 1.52 1.56 1.54 1.54 1.60 1.54 1.29 1.17 1.05 1.08 1.01 0.90 0.92 0.93 1.17 1.12 1.01 0.87 0.79 0.75 0.77 0.77 0.85 0.98 1.05 1.12 1.26 1.50 1.76 1.99
0.56 0.61 0.70 0.83 0.92 0.96 0.96 0.99 0.99 1.06 1.21 1.35 1.43 1.60 1.52 1.42 1.45 1.53 1.62 1.57 1.37 1.21 1.22 1.09 0.97 0.91 0.93 1.02 0.99 0.83 0.73 0.61 0.57 0.55 0.53 0.54 0.58 0.65 0.75 0.91 1.07 1.22 1.36
0.54 0.57 0.66 0.77 0.90 1.01 1.04 1.03 1.03 1.13 1.27 1.35 1.49 1.58 1.51 1.47 1.50 1.50 1.61 1.69 1.62 1.43 1.25 1.17 1.07 0.94 0.91 0.89 0.87 0.86 0.80 0.68 0.55 0.47 0.43 0.42 0.43 0.43 0.48 0.58 0.73 0.85 0.93
0.50 0.55 0.62 0.70 0.72 0.79 0.85 0.86 0.94 1.06 1.22 1.28 1.29 1.35 1.41 1.44 1.58 1.54 1.60 1.68 1.72 1.62 1.32 1.26 1.17 0.97 1.02 0.80 0.78 0.81 0.80 0.69 0.52 0.43 0.39 0.39 0.41 0.43 0.44 0.45 0.52 0.63 0.74
0.44 0.49 0.54 0.55 0.56 0.56 0.59 0.65 0.76 0.90 0.98 0.99 0.97 1.01 1.06 1.16 1.29 1.33 1.41 1.48 1.60 1.65 1.38 1.35 1.48 1.35 1.31 1.09 0.92 0.85 0.71 0.66 0.59 0.47 0.39 0.36 0.36 0.39 0.45 0.46 0.44 0.47 0.55
0.38 0.42 0.44 0.45 0.45 0.47 0.54 0.60 0.68 0.76 0.84 0.83 0.82 0.84 0.81 0.90 1.06 1.12 1.21 1.32 1.49 1.68 1.53 1.45 1.60 1.65 1.56 1.36 1.23 1.05 0.79 0.63 0.66 0.61 0.46 0.39 0.35 0.36 0.41 0.45 0.43 0.42 0.45
0.32 0.35 0.39 0.43 0.47 0.54 0.65 0.75 0.81 0.79 0.71 0.64 0.60 0.59 0.60 0.67 0.79 0.92 1.06 1.12 1.24 1.56 1.63 1.50 1.55 1.79 1.78 1.61 1.56 1.30 1.11 1.00 0.75 0.69 0.56 0.45 0.42 0.40 0.42 0.47 0.46 0.43 0.41
0.34 0.41 0.46 0.53 0.61 0.64 0.67 0.72 0.74 0.76 0.71 0.61 0.50 0.43 0.42 0.51 0.64 0.75 0.86 0.97 1.08 1.25 1.45 1.52 1.53 1.74 1.84 1.74 1.83 1.63 1.39 1.23 1.01 0.80 0.71 0.53 0.46 0.48 0.47 0.49 0.51 0.51 0.49
0.29 0.43 0.51 0.57 0.66 0.63 0.58 0.58 0.58 0.54 0.54 0.55 0.49 0.40 0.35 0.39 0.46 0.57 0.63 0.75 0.90 1.05 1.16 1.33 1.46 1.62 1.84 1.83 1.72 1.70 1.54 1.38 1.29 1.17 1.13 0.81 0.54 0.47 0.46 0.48 0.53 0.60 0.65
0.28 0.36 0.39 0.45 0.51 0.45 0.39 0.37 0.38 0.40 0.43 0.46 0.47 0.43 0.37 0.33 0.33 0.38 0.44 0.51 0.60 0.71 0.88 1.09 1.22 1.37 1.59 1.79 1.76 1.80 1.72 1.49 1.38 1.31 1.36 1.39 1.06 0.80 0.64 0.46 0.45 0.53 0.66
0.33 0.38 0.37 0.37 0.40 0.44 0.35 0.29 0.26 0.29 0.36 0.40 0.43 0.42 0.32 0.27 0.29 0.29 0.30 0.34 0.42 0.43 0.51 0.73 0.89 0.95 1.11 1.39 1.68 1.82 1.88 1.74 1.56 1.54 1.54 1.67 1.75 1.49 1.02 0.71 0.60 0.52 0.59
0.45 0.47 0.41 0.40 0.41 0.40 0.33 0.26 0.23 0.24 0.31 0.37 0.41 0.39 0.36 0.32 0.32 0.34 0.37 0.37 0.34 0.32 0.33 0.38 0.48 0.67 0.82 1.04 1.39 1.61 1.84 2.02 1.92 1.85 1.78 1.88 1.99 2.19 1.75 1.19 0.95 0.73 0.68
0.50 0.51 0.45 0.43 0.45 0.43 0.34 0.25 0.25 0.31 0.37 0.39 0.42 0.40 0.38 0.36 0.32 0.27 0.34 0.38 0.34 0.31 0.29 0.32 0.38 0.52 0.71 0.84 1.12 1.45 1.69 1.80 1.88 1.97 1.94 2.00 2.03 2.16 2.49 2.08 1.40 0.99 0.77
0.53 0.49 0.47 0.51 0.53 0.52 0.41 0.28 0.26 0.32 0.41 0.45 0.53 0.52 0.40 0.32 0.30 0.26 0.28 0.34 0.32 0.30 0.31 0.30 0.35 0.41 0.50 0.64 0.84 1.11 1.30 1.45 1.50 1.66 1.62 1.54 1.60 1.72 2.19 2.52 2.18 1.54 1.08

GEFSMA_prec_meanprecacc_114.txt.gz
Total_Precipitation_Accumulation
1.40 1.40 1.35 1.40 1.36 1.56 1.84 1.91 1.87 2.03 2.04 1.85 1.59 1.42 1.30 1.19 1.00 1.03 1.15 1.15 1.08 1.14 1.34 1.40 1.29 1.21 1.12 0.95 0.83 0.80 0.79 0.74 0.70 0.57 0.44 0.41 0.47 0.51 0.47 0.40 0.35 0.31 0.30
1.85 1.88 1.74 1.69 1.60 1.63 1.81 1.95 2.01 2.43 2.31 2.19 1.79 1.58 1.52 1.45 1.32 1.21 1.24 1.35 1.19 1.07 1.12 1.30 1.42 1.37 1.29 1.15 0.99 0.87 0.79 0.74 0.66 0.49 0.39 0.35 0.42 0.51 0.50 0.45 0.37 0.30 0.23
1.99 2.07 2.05 1.91 1.89 1.88 1.98 1.97 2.16 2.42 2.17 2.07 1.79 1.68 1.59 1.47 1.34 1.36 1.45 1.51 1.38 1.20 1.03 1.08 1.27 1.38 1.42 1.40 1.30 1.11 0.87 0.72 0.65 0.50 0.38 0.34 0.39 0.46 0.47 0.48 0.45 0.33 0.22
2.10 2.17 1.99 1.88 2.14 2.20 2.22 2.28 2.35 2.38 2.27 2.20 2.00 1.68 1.55 1.50 1.20 1.22 1.25 1.21 1.24 1.07 1.10 1.23 1.30 1.33 1.44 1.51 1.51 1.44 1.21 0.93 0.76 0.63 0.49 0.40 0.44 0.48 0.44 0.44 0.43 0.34 0.25
1.97 2.10 1.91 1.97 2.21 2.29 2.27 2.11 2.42 2.39 2.33 2.23 1.89 1.60 1.36 1.20 1.07 0.97 0.94 0.86 0.93 0.90 0.91 1.07 1.22 1.20 1.38 1.59 1.66 1.67 1.60 1.36 1.07 0.89 0.78 0.65 0.57 0.51 0.47 0.45 0.42 0.36 0.28
1.98 2.12 1.99 2.07 2.23 2.29 2.24 2.25 2.37 2.41 2.25 2.19 1.75 1.43 1.22 0.98 0.94 0.88 0.75 0.77 0.77 0.72 0.69 0.85 1.06 0.93 1.21 1.44 1.51 1.70 1.81 1.68 1.42 1.19 1.08 0.97 0.88 0.74 0.58 0.53 0.52 0.47 0.38
2.01 2.20 2.09 2.21 2.23 2.08 2.07 2.24 2.38 2.24 2.02 2.21 1.96 1.37 0.99 0.80 0.81 0.76 0.76 0.81 0.77 0.72 0.75 0.91 1.00 0.95 0.92 1.06 1.11 1.30 1.67 1.87 1.72 1.46 1.23 1.12 1.14 1.12 0.82 0.73 0.72 0.66 0.57
1.88 1.90 1.94 1.93 1.97 2.00 2.00 2.08 2.25 2.07 1.75 1.98 1.95 1.65 1.08 0.83 0.73 0.65 0.76 0.78 0.76 0.84 0.86 0.94 1.12 1.24 1.14 1.19 1.01 0.99 1.37 1.80 1.91 1.82 1.56 1.36 1.34 1.32 1.08 1.04 0.93 0.78 0.68
1.56 1.57 1.60 1.73 1.95 2.04 1.98 2.02 2.05 1.93 1.63 1.66 1.82 1.88 1.37 0.98 0.76 0.53 0.58 0.71 0.86 1.00 0.99 1.13 1.22 1.29 1.35 1.46 1.42 1.28 1.19 1.30 1.60 1.95 1.92 1.69 1.46 1.30 1.34 1.38 1.24 0.96 0.76
1.41 1.38 1.40 1.46 1.53 1.62 1.64 1.58 1.71 1.82 1.76 1.59 1.70 1.75 1.60 1.42 1.21 0.78 0.61 0.65 0.84 0.95 1.04 1.06 1.05 1.10 1.34 1.63 1.71 1.53 1.33 1.17 1.22 1.68 2.01 1.99 1.70 1.46 1.49 1.61 1.71 1.41 0.94
1.27 1.27 1.22 1.20 1.17 1.23 1.36 1.39 1.50 1.55 1.59 1.57 1.61 1.68 1.65 1.61 1.57 1.36 0.96 0.92 0.91 0.81 0.89 0.96 0.99 1.03 1.27 1.50 1.60 1.52 1.53 1.34 1.27 1.36 1.59 1.79 1.76 1.65 1.58 1.71 2.03 2.02 1.61
1.03 1.02 1.05 1.07 1.05 1.10 1.20 1.29 1.36 1.32 1.41 1.47 1.51 1.58 1.64 1.62 1.65 1.66 1.33 1.17 1.07 0.92 0.94 0.90 0.90 0.96 1.17 1.33 1.27 1.37 1.36 1.21 1.14 1.18 1.27 1.46 1.51 1.54 1.57 1.73 2.05 2.29 2.25
0.74 0.77 0.77 0.86 0.91 1.00 1.04 1.04 1.13 1.23 1.37 1.44 1.46 1.52 1.56 1.54 1.54 1.60 1.54 1.29 1.17 1.05 1.08 1.01 0.90 0.93 0.95 1.21 1.19 1.11 0.96 0.87 0.82 0.84 0.85 0.97 1.13 1.22 1.32 1.47 1.72 1.98 2.18
0.56 0.61 0.70 0.83 0.92 0.96 0.96 0.99 0.99 1.06 1.21 1.35 1.43 1.60 1.52 1.42 1.45 1.53 1.62 1.57 1.37 1.21 1.22 1.09 0.97 0.91 0.94 1.03 1.00 0.87 0.78 0.69 0.65 0.63 0.60 0.62 0.68 0.77 0.91 1.08 1.27 1.43 1.56
0.54 0.57 0.66 0.77 0.90 1.01 1.04 1.03 1.03 1.13 1.27 1.35 1.49 1.58 1.51 1.47 1.50 1.50 1.61 1.69 1.63 1.43 1.25 1.17 1.07 0.94 0.91 0.89 0.87 0.86 0.82 0.72 0.62 0.57 0.51 0.48 0.50 0.51 0.57 0.70 0.86 1.00 1.09
0.50 0.55 0.62 0.70 0.72 0.79 0.85 0.86 0.94 1.06 1.22 1.28 1.29 1.35 1.41 1.44 1.58 1.54 1.60 1.68 1.72 1.62 1.32 1.26 1.17 0.97 1.02 0.80 0.78 0.81 0.81 0.72 0.56 0.50 0.47 0.45 0.46 0.49 0.50 0.53 0.61 0.73 0.85
0.44 0.49 0.54 0.55 0.56 0.56 0.59 0.65 0.76 0.90 0.98 0.99 0.97 1.01 1.06 1.16 1.29 1.33 1.41 1.48 1.60 1.65 1.38 1.35 1.48 1.35 1.32 1.09 0.92 0.85 0.71 0.67 0.60 0.50 0.44 0.42 0.40 0.43 0.50 0.51 0.51 0.56 0.64
0.38 0.42 0.44 0.45 0.45 0.47 0.54 0.60 0.68 0.76 0.84 0.83 0.82 0.84 0.81 0.90 1.06 1.12 1.21 1.32 1.49 1.68 1.53 1.45 1.60 1.65 1.56 1.36 1.23 1.05 0.79 0.63 0.66 0.62 0.48 0.42 0.39 0.39 0.45 0.49 0.47 0.48 0.52
0.32 0.35 0.39 0.43 0.47 0.54 0.65 0.75 0.81 0.79 0.71 0.64 0.60 0.59 0.60 0.67 0.79 0.92 1.06 1.12 1.24 1.56 1.63 1.50 1.55 1.79 1.78 1.61 1.56 1.30 1.11 1.00 0.75 0.69 0.56 0.46 0.43 0.42 0.45 0.50 0.49 0.47 0.47
0.34 0.41 0.46 0.53 0.61 0.64 0.67 0.72 0.74 0.76 0.71 0.61 0.50 0.43 0.42 0.51 0.64 0.75 0.86 0.97 1.08 1.25 1.45 1.52 1.53 1.74 1.84 1.74 1.84 1.63 1.40 1.23 1.01 0.80 0.71 0.53 0.47 0.48 0.48 0.51 0.53 0.53 0.53
0.29 0.43 0.51 0.57 0.66 0.63 0.58 0.58 0.58 0.54 0.54 0.55 0.49 0.40 0.35 0.39 0.46 0.57 0.63 0.75 0.90 1.05 1.16 1.34 1.46 1.62 1.84 1.84 1.72 1.70 1.54 1.38 1.29 1.17 1.13 0.81 0.55 0.47 0.47 0.49 0.55 0.62 0.68
0.28 0.36 0.39 0.45 0.51 0.45 0.39 0.37 0.38 0.40 0.43 0.46 0.47 0.43 0.37 0.33 0.33 0.38 0.44 0.51 0.60 0.71 0.88 1.09 1.22 1.37 1.60 1.79 1.76 1.80 1.72 1.49 1.38 1.31 1.36 1.39 1.06 0.80 0.64 0.47 0.46 0.55 0.69
0.33 0.38 0.37 0.37 0.40 0.44 0.35 0.29 0.26 0.29 0.36 0.40 0.43 0.42 0.32 0.27 0.29 0.29 0.30 0.34 0.42 0.43 0.51 0.74 0.89 0.96 1.11 1.39 1.68 1.82 1.88 1.74 1.56 1.54 1.54 1.67 1.76 1.49 1.02 0.71 0.61 0.53 0.61
0.46 0.47 0.41 0.40 0.41 0.40 0.33 0.26 0.23 0.24 0.31 0.37 0.41 0.39 0.36 0.32 0.32 0.34 0.37 0.37 0.34 0.32 0.33 0.38 0.49 0.68 0.82 1.04 1.39 1.61 1.84 2.02 1.92 1.85 1.78 1.88 1.99 2.19 1.75 1.19 0.96 0.74 0.70
0.50 0.51 0.46 0.44 0.45 0.43 0.34 0.25 0.25 0.32 0.37 0.39 0.42 0.40 0.38 0.36 0.32 0.27 0.34 0.38 0.34 0.32 0.29 0.32 0.38 0.52 0.71 0.84 1.12 1.46 1.69 1.80 1.88 1.97 1.94 2.00 2.03 2.16 2.49 2.08 1.40 1.00 0.79
0.53 0.49 0.47 0.51 0.53 0.52 0.42 0.29 0.27 0.32 0.41 0.45 0.53 0.52 0.40 0.32 0.30 0.26 0.28 0.34 0.33 0.30 0.31 0.31 0.35 0.41 0.50 0.64 0.84 1.11 1.30 1.45 1.51 1.66 1.63 1.54 1.60 1.72 2.20 2.53 2.19 1.55 1.09

GEFSMA_prec_meanprecacc_120.txt.gz
Total_Precipitation_Accumulation
1.51 1.51 1.45 1.50 1.46 1.67 1.95 2.03 1.96 2.13 2.15 1.92 1.65 1.46 1.35 1.23 1.05 1.07 1.19 1.17 1.11 1.19 1.43 1.51 1.39 1.30 1.20 1.01 0.87 0.84 0.82 0.76 0.72 0.59 0.46 0.42 0.48 0.52 0.47 0.40 0.35 0.31 0.30
1.95 1.97 1.83 1.79 1.70 1.73 1.91 2.05 2.11 2.53 2.39 2.26 1.84 1.63 1.56 1.50 1.36 1.24 1.28 1.39 1.22 1.11 1.19 1.41 1.54 1.49 1.43 1.25 1.06 0.93 0.84 0.78 0.69 0.51 0.41 0.37 0.43 0.52 0.51 0.46 0.38 0.31 0.23
2.06 2.13 2.12 1.99 1.97 1.97 2.08 2.08 2.26 2.50 2.23 2.12 1.84 1.73 1.64 1.51 1.37 1.38 1.48 1.55 1.42 1.24 1.07 1.15 1.38 1.50 1.55 1.54 1.40 1.18 0.95 0.79 0.69 0.53 0.40 0.36 0.40 0.47 0.48 0.49 0.45 0.33 0.23
2.15 2.23 2.04 1.93 2.21 2.28 2.32 2.40 2.45 2.46 2.33 2.25 2.05 1.73 1.60 1.55 1.24 1.25 1.28 1.23 1.28 1.12 1.17 1.31 1.40 1.45 1.57 1.64 1.65 1.57 1.31 1.01 0.83 0.68 0.52 0.42 0.46 0.49 0.45 0.44 0.43 0.35 0.25
2.00 2.14 1.96 2.02 2.26 2.34 2.32 2.17 2.46 2.44 2.38 2.28 1.93 1.64 1.41 1.24 1.12 1.00 0.97 0.89 0.98 0.97 1.02 1.17 1.30 1.30 1.49 1.71 1.80 1.83 1.75 1.47 1.15 0.95 0.83 0.68 0.60 0.53 0.48 0.46 0.42 0.36 0.28
2.01 2.15 2.03 2.11 2.26 2.32 2.27 2.29 2.41 2.45 2.29 2.24 1.79 1.46 1.25 1.01 0.98 0.92 0.78 0.80 0.81 0.75 0.77 0.93 1.17 1.03 1.30 1.55 1.65 1.87 2.00 1.87 1.56 1.29 1.15 1.03 0.93 0.77 0.60 0.54 0.53 0.48 0.38
2.03 2.22 2.11 2.25 2.27 2.11 2.10 2.27 2.40 2.27 2.06 2.24 1.99 1.40 1.02 0.82 0.83 0.78 0.78 0.84 0.80 0.75 0.80 0.99 1.09 1.04 1.00 1.14 1.19 1.42 1.82 2.05 1.92 1.63 1.36 1.22 1.21 1.17 0.85 0.75 0.73 0.67 0.57
1.89 1.91 1.96 1.94 1.99 2.03 2.03 2.10 2.27 2.08 1.77 2.00 1.97 1.67 1.10 0.85 0.74 0.65 0.77 0.79 0.78 0.87 0.90 0.99 1.20 1.32 1.22 1.29 1.09 1.05 1.47 1.94 2.10 2.03 1.74 1.51 1.45 1.42 1.16 1.08 0.95 0.79 0.69
1.57 1.58 1.61 1.74 1.96 2.06 2.00 2.04 2.07 1.94 1.64 1.67 1.83 1.89 1.38 0.99 0.77 0.53 0.59 0.71 0.87 1.02 1.01 1.17 1.26 1.36 1.43 1.55 1.53 1.36 1.26 1.38 1.75 2.15 2.12 1.85 1.60 1.43 1.46 1.49 1.31 1.00 0.77
1.41 1.38 1.40 1.46 1.53 1.62 1.65 1.59 1.71 1.83 1.77 1.59 1.70 1.75 1.61 1.42 1.22 0.78 0.61 0.66 0.85 0.96 1.06 1.07 1.07 1.14 1.40 1.71 1.80 1.61 1.39 1.22 1.31 1.84 2.21 2.19 1.88 1.61 1.63 1.76 1.85 1.51 0.99
1.27 1.27 1.22 1.21 1.18 1.24 1.36 1.39 1.50 1.55 1.60 1.58 1.61 1.68 1.65 1.62 1.57 1.36 0.97 0.92 0.92 0.82 0.90 0.98 1.01 1.05 1.31 1.56 1.67 1.60 1.59 1.41 1.34 1.44 1.72 1.97 1.98 1.86 1.77 1.87 2.19 2.17 1.72
1.03 1.02 1.05 1.07 1.06 1.11 1.20 1.29 1.36 1.32 1.42 1.47 1.51 1.59 1.65 1.63 1.66 1.66 1.34 1.18 1.08 0.92 0.94 0.91 0.91 0.97 1.18 1.36 1.30 1.41 1.40 1.27 1.20 1.24 1.34 1.56 1.65 1.73 1.77 1.94 2.25 2.48 2.42
0.74 0.77 0.77 0.86 0.91 1.01 1.04 1.05 1.13 1.23 1.37 1.45 1.46 1.52 1.56 1.54 1.54 1.61 1.54 1.30 1.18 1.05 1.08 1.01 0.90 0.93 0.95 1.22 1.22 1.14 0.99 0.91 0.88 0.90 0.90 1.01 1.20 1.32 1.46 1.64 1.91 2.16 2.36
0.56 0.61 0.70 0.83 0.92 0.96 0.96 0.99 0.99 1.06 1.21 1.35 1.43 1.60 1.52 1.42 1.46 1.53 1.62 1.58 1.37 1.21 1.22 1.09 0.97 0.92 0.94 1.04 1.02 0.89 0.82 0.73 0.70 0.68 0.65 0.66 0.72 0.82 0.97 1.18 1.42 1.60 1.74
0.54 0.57 0.66 0.77 0.90 1.01 1.04 1.03 1.04 1.13 1.27 1.35 1.49 1.58 1.51 1.48 1.50 1.50 1.61 1.70 1.63 1.44 1.25 1.17 1.07 0.95 0.92 0.89 0.88 0.86 0.83 0.74 0.65 0.60 0.55 0.53 0.54 0.55 0.61 0.76 0.94 1.11 1.22
0.50 0.55 0.62 0.70 0.72 0.79 0.85 0.86 0.94 1.06 1.22 1.28 1.29 1.35 1.41 1.45 1.58 1.54 1.60 1.68 1.73 1.63 1.33 1.26 1.17 0.97 1.02 0.80 0.78 0.81 0.81 0.72 0.57 0.51 0.49 0.49 0.50 0.53 0.54 0.57 0.66 0.79 0.94
0.44 0.49 0.54 0.55 0.56 0.56 0.59 0.65 0.76 0.90 0.98 0.99 0.97 1.01 1.06 1.16 1.29 1.33 1.41 1.49 1.61 1.66 1.39 1.35 1.48 1.35 1.32 1.09 0.93 0.86 0.72 0.67 0.61 0.51 0.45 0.43 0.44 0.48 0.54 0.55 0.54 0.59 0.69
0.38 0.42 0.44 0.45 0.45 0.47 0.54 0.61 0.68 0.76 0.84 0.83 0.82 0.84 0.82 0.91 1.06 1.13 1.21 1.32 1.49 1.68 1.54 1.46 1.60 1.65 1.56 1.36 1.23 1.05 0.79 0.64 0.67 0.63 0.48 0.42 0.41 0.44 0.51 0.55 0.52 0.52 0.55
0.32 0.35 0.39 0.43 0.47 0.54 0.65 0.75 0.81 0.79 0.71 0.65 0.60 0.59 0.60 0.68 0.80 0.93 1.06 1.13 1.25 1.57 1.64 1.51 1.55 1.80 1.79 1.61 1.56 1.30 1.11 1.01 0.75 0.69 0.56 0.46 0.43 0.43 0.48 0.56 0.57 0.54 0.51
0.34 0.41 0.46 0.53 0.61 0.64 0.67 0.72 0.74 0.76 0.72 0.61 0.50 0.43 0.42 0.52 0.64 0.76 0.86 0.97 1.09 1.26 1.46 1.53 1.54 1.75 1.85 1.75 1.84 1.64 1.40 1.24 1.01 0.80 0.71 0.53 0.47 0.49 0.49 0.52 0.57 0.60 0.59
0.29 0.43 0.51 0.57 0.66 0.64 0.58 0.58 0.58 0.54 0.55 0.55 0.50 0.40 0.36 0.39 0.46 0.57 0.63 0.75 0.91 1.06 1.18 1.35 1.47 1.63 1.85 1.84 1.73 1.71 1.55 1.39 1.29 1.18 1.14 0.81 0.55 0.47 0.47 0.50 0.55 0.64 0.70
0.28 0.36 0.40 0.45 0.51 0.45 0.39 0.37 0.38 0.40 0.43 0.46 0.47 0.43 0.37 0.33 0.33 0.38 0.44 0.51 0.60 0.72 0.90 1.11 1.24 1.38 1.61 1.81 1.78 1.81 1.73 1.50 1.39 1.32 1.38 1.40 1.07 0.81 0.65 0.47 0.46 0.55 0.69
0.33 0.38 0.38 0.38 0.40 0.44 0.36 0.29 0.27 0.29 0.36 0.40 0.43 0.43 0.32 0.27 0.29 0.29 0.30 0.35 0.42 0.43 0.52 0.74 0.91 0.97 1.13 1.41 1.71 1.85 1.91 1.76 1.58 1.55 1.55 1.68 1.76 1.50 1.03 0.71 0.61 0.53 0.61
0.46 0.49 0.42 0.40 0.42 0.41 0.34 0.26 0.23 0.24 0.31 0.37 0.41 0.39 0.36 0.32 0.32 0.34 0.37 0.38 0.35 0.33 0.33 0.39 0.50 0.69 0.83 1.06 1.42 1.64 1.87 2.05 1.94 1.86 1.79 1.89 1.99 2.20 1.76 1.20 0.96 0.74 0.70
0.51 0.52 0.46 0.44 0.45 0.44 0.35 0.26 0.25 0.32 0.37 0.39 0.42 0.40 0.38 0.36 0.32 0.27 0.34 0.38 0.34 0.32 0.30 0.32 0.38 0.52 0.71 0.84 1.13 1.46 1.71 1.83 1.90 1.98 1.96 2.02 2.03 2.16 2.49 2.08 1.40 1.00 0.79
0.53 0.49 0.47 0.51 0.54 0.53 0.42 0.29 0.27 0.32 0.41 0.45 0.53 0.53 0.40 0.32 0.30 0.26 0.29 0.34 0.33 0.31 0.33 0.32 0.36 0.42 0.51 0.65 0.85 1.11 1.32 1.48 1.53 1.68 1.64 1.56 1.61 1.73 2.20 2.53 2.19 1.56 1.10

GEFSMA_prec_meanprecacc_126.txt.gz
Total_Precipitation_Accumulation
1.63 1.63 1.56 1.60 1.55 1.77 2.07 2.13 2.04 2.21 2.21 1.98 1.69 1.51 1.39 1.25 1.10 1.15 1.30 1.24 1.14 1.21 1.46 1.54 1.42 1.34 1.25 1.06 0.92 0.88 0.85 0.79 0.75 0.61 0.48 0.45 0.51 0.54 0.48 0.41 0.36 0.32 0.31
2.05 2.08 1.95 1.89 1.79 1.84 2.02 2.15 2.18 2.60 2.46 2.32 1.88 1.66 1.58 1.52 1.41 1.34 1.41 1.51 1.27 1.14 1.22 1.45 1.59 1.54 1.50 1.32 1.13 1.00 0.90 0.82 0.72 0.54 0.43 0.39 0.46 0.55 0.53 0.47 0.39 0.32 0.24
2.14 2.22 2.22 2.07 2.04 2.04 2.16 2.17 2.34 2.59 2.30 2.18 1.89 1.77 1.67 1.53 1.39 1.41 1.55 1.66 1.51 1.29 1.12 1.20 1.44 1.56 1.63 1.62 1.48 1.26 1.03 0.87 0.76 0.58 0.43 0.38 0.42 0.50 0.50 0.51 0.46 0.34 0.23
2.20 2.28 2.09 1.97 2.24 2.32 2.36 2.45 2.52 2.54 2.40 2.32 2.11 1.78 1.65 1.59 1.27 1.27 1.31 1.30 1.37 1.22 1.28 1.37 1.45 1.50 1.63 1.73 1.75 1.68 1.41 1.09 0.90 0.74 0.57 0.46 0.49 0.52 0.47 0.46 0.45 0.36 0.25
2.03 2.18 2.01 2.07 2.31 2.38 2.37 2.20 2.52 2.50 2.43 2.34 1.97 1.68 1.44 1.27 1.15 1.02 0.99 0.92 1.02 1.06 1.13 1.25 1.35 1.35 1.55 1.80 1.91 1.97 1.88 1.58 1.24 1.02 0.90 0.74 0.64 0.56 0.50 0.48 0.44 0.38 0.29
2.03 2.18 2.06 2.14 2.29 2.36 2.31 2.32 2.46 2.48 2.32 2.27 1.81 1.49 1.28 1.03 1.01 0.95 0.80 0.82 0.84 0.79 0.83 1.00 1.26 1.09 1.38 1.64 1.76 2.01 2.15 2.03 1.70 1.40 1.24 1.11 0.99 0.82 0.63 0.57 0.55 0.49 0.39
2.07 2.25 2.14 2.29 2.30 2.15 2.14 2.30 2.44 2.30 2.08 2.25 2.01 1.42 1.04 0.84 0.85 0.81 0.80 0.87 0.82 0.79 0.87 1.09 1.21 1.16 1.11 1.21 1.26 1.51 1.94 2.19 2.09 1.79 1.49 1.33 1.30 1.24 0.91 0.78 0.76 0.69 0.59
1.92 1.93 1.98 1.97 2.02 2.07 2.09 2.15 2.31 2.12 1.79 2.01 1.98 1.69 1.12 0.87 0.76 0.67 0.79 0.81 0.80 0.90 0.94 1.08 1.32 1.44 1.32 1.41 1.18 1.11 1.55 2.06 2.26 2.23 1.94 1.69 1.60 1.54 1.26 1.16 1.00 0.82 0.71
1.59 1.60 1.62 1.76 1.99 2.09 2.04 2.07 2.10 1.97 1.66 1.68 1.83 1.90 1.39 1.01 0.80 0.55 0.60 0.72 0.88 1.04 1.03 1.21 1.33 1.45 1.52 1.67 1.68 1.47 1.34 1.46 1.86 2.31 2.30 2.02 1.75 1.57 1.59 1.61 1.41 1.06 0.81
1.43 1.40 1.42 1.48 1.55 1.64 1.67 1.60 1.73 1.84 1.79 1.60 1.71 1.76 1.61 1.43 1.24 0.81 0.63 0.67 0.85 0.96 1.07 1.09 1.11 1.20 1.48 1.81 1.91 1.69 1.45 1.27 1.37 1.97 2.40 2.37 2.03 1.75 1.76 1.88 1.98 1.63 1.08
1.29 1.28 1.23 1.22 1.19 1.25 1.37 1.40 1.51 1.56 1.60 1.58 1.62 1.69 1.66 1.62 1.58 1.37 0.99 0.93 0.92 0.83 0.91 0.99 1.03 1.08 1.35 1.62 1.75 1.66 1.64 1.44 1.38 1.50 1.82 2.11 2.13 2.02 1.91 2.01 2.32 2.31 1.87
1.04 1.03 1.06 1.08 1.07 1.12 1.21 1.30 1.37 1.33 1.42 1.48 1.51 1.59 1.65 1.63 1.66 1.67 1.34 1.19 1.08 0.92 0.94 0.91 0.91 0.98 1.19 1.38 1.33 1.43 1.44 1.30 1.22 1.27 1.39 1.64 1.76 1.85 1.91 2.08 2.41 2.64 2.59
0.74 0.77 0.78 0.87 0.92 1.01 1.04 1.05 1.14 1.23 1.37 1.45 1.46 1.53 1.57 1.55 1.54 1.61 1.55 1.30 1.18 1.05 1.08 1.02 0.91 0.94 0.96 1.23 1.23 1.14 0.99 0.91 0.89 0.91 0.92 1.06 1.27 1.40 1.55 1.76 2.03 2.30 2.51
0.56 0.61 0.71 0.83 0.92 0.96 0.96 1.00 1.00 1.06 1.21 1.35 1.43 1.60 1.52 1.42 1.46 1.53 1.62 1.58 1.38 1.22 1.23 1.09 0.98 0.92 0.95 1.05 1.02 0.89 0.82 0.74 0.70 0.68 0.66 0.69 0.77 0.89 1.04 1.24 1.48 1.68 1.84
0.54 0.57 0.66 0.77 0.90 1.01 1.04 1.03 1.04 1.13 1.27 1.35 1.49 1.58 1.51 1.48 1.50 1.50 1.61 1.70 1.64 1.44 1.26 1.18 1.07 0.95 0.92 0.90 0.88 0.86 0.84 0.74 0.65 0.60 0.56 0.54 0.57 0.60 0.69 0.84 1.00 1.16 1.26
0.50 0.55 0.62 0.70 0.72 0.79 0.85 0.86 0.94 1.06 1.22 1.28 1.29 1.36 1.42 1.45 1.58 1.54 1.60 1.68 1.73 1.63 1.34 1.26 1.18 0.97 1.02 0.80 0.78 0.81 0.82 0.72 0.57 0.51 0.49 0.49 0.51 0.54 0.56 0.61 0.71 0.84 0.98
0.44 0.49 0.54 0.55 0.56 0.57 0.59 0.65 0.76 0.90 0.98 0.99 0.97 1.02 1.07 1.16 1.30 1.34 1.42 1.49 1.61 1.66 1.40 1.35 1.48 1.36 1.32 1.10 0.93 0.86 0.72 0.68 0.61 0.51 0.45 0.43 0.44 0.48 0.54 0.56 0.57 0.62 0.73
0.38 0.42 0.44 0.45 0.45 0.47 0.54 0.61 0.68 0.76 0.84 0.83 0.83 0.85 0.82 0.91 1.07 1.13 1.22 1.33 1.50 1.69 1.54 1.46 1.61 1.65 1.56 1.37 1.24 1.06 0.79 0.64 0.67 0.63 0.48 0.42 0.41 0.44 0.51 0.55 0.52 0.52 0.57
0.32 0.35 0.39 0.43 0.47 0.54 0.65 0.75 0.82 0.79 0.71 0.65 0.61 0.60 0.60 0.68 0.81 0.93 1.08 1.14 1.26 1.57 1.64 1.52 1.56 1.80 1.79 1.61 1.57 1.31 1.12 1.01 0.75 0.69 0.56 0.46 0.43 0.43 0.48 0.56 0.57 0.54 0.52
0.35 0.41 0.46 0.53 0.61 0.64 0.67 0.72 0.74 0.77 0.72 0.61 0.50 0.43 0.42 0.52 0.65 0.77 0.88 0.99 1.10 1.27 1.47 1.54 1.54 1.76 1.86 1.76 1.85 1.65 1.41 1.25 1.02 0.80 0.71 0.53 0.47 0.49 0.49 0.52 0.57 0.60 0.61
0.30 0.43 0.52 0.57 0.66 0.64 0.58 0.58 0.58 0.54 0.55 0.55 0.50 0.40 0.36 0.39 0.46 0.57 0.63 0.76 0.91 1.06 1.18 1.36 1.48 1.64 1.86 1.87 1.75 1.73 1.56 1.40 1.30 1.18 1.14 0.82 0.55 0.48 0.47 0.50 0.56 0.64 0.71
0.28 0.37 0.40 0.45 0.51 0.46 0.39 0.37 0.39 0.41 0.43 0.46 0.47 0.43 0.38 0.33 0.33 0.38 0.44 0.51 0.60 0.72 0.90 1.11 1.25 1.39 1.62 1.82 1.80 1.83 1.74 1.51 1.40 1.33 1.39 1.40 1.08 0.82 0.66 0.47 0.47 0.56 0.70
0.34 0.39 0.38 0.38 0.41 0.45 0.36 0.31 0.28 0.30 0.36 0.40 0.43 0.43 0.33 0.27 0.29 0.29 0.31 0.35 0.42 0.43 0.52 0.74 0.91 0.97 1.14 1.42 1.72 1.86 1.93 1.78 1.59 1.56 1.57 1.69 1.77 1.51 1.03 0.71 0.61 0.54 0.62
0.48 0.51 0.44 0.41 0.43 0.42 0.35 0.27 0.24 0.24 0.31 0.37 0.41 0.39 0.36 0.32 0.32 0.35 0.38 0.38 0.35 0.33 0.34 0.39 0.50 0.69 0.84 1.08 1.44 1.65 1.89 2.06 1.95 1.86 1.81 1.90 1.99 2.20 1.76 1.20 0.96 0.75 0.70
0.53 0.54 0.48 0.45 0.46 0.44 0.36 0.27 0.26 0.32 0.37 0.39 0.42 0.40 0.38 0.37 0.32 0.27 0.34 0.39 0.34 0.33 0.30 0.33 0.38 0.53 0.71 0.85 1.13 1.47 1.72 1.83 1.91 1.99 1.98 2.04 2.04 2.17 2.50 2.09 1.41 1.00 0.79
0.55 0.52 0.50 0.53 0.55 0.54 0.43 0.30 0.27 0.33 0.41 0.45 0.54 0.53 0.40 0.32 0.30 0.26 0.29 0.35 0.34 0.32 0.34 0.33 0.37 0.43 0.51 0.65 0.85 1.11 1.32 1.49 1.54 1.69 1.65 1.59 1.63 1.76 2.22 2.53 2.19 1.57 1.11